• Join FlightAware (Why Join?)
  • Login
  • US Flag 
01:27AM EST


 

Airport Tracker/Info


-or-


 

Live Flight TrackerFlight Track Log ✈ RPA4901 ✈ 30-Apr-2013 ✈ KDEN - KABQ

Flight Track Log - Related Links

Times and Time Zones

All times are in EDT time to prevent confusion due to time zone crossing. See the RPA4901 flight status page for this flight to view local times or setup timezone preferences in your user account.

Time Position Orientation Groundspeed Altitude Reporting Facility
EDT Latitude Longitude Course Direction KTS MPH feet Rate Location/Type
08:52PM 39.9203 -104.6867 271° West 176 203 6,800  Level Denver Center
08:53PM 39.9211 -104.7650 271° West 241 277 8,400 1,860 Climbing Denver Center
08:54PM 39.8836 -104.8411 237° Southwest 252 290 10,700 2,280 Climbing Denver Center
08:55PM 39.8408 -104.9000 227° Southwest 230 265 13,100 1,920 Climbing Denver Center
08:56PM 39.7750 -104.8961 177° South 224 258 14,700 1,320 Climbing Denver Center
08:57PM 39.7253 -104.8906 175° South 229 264 15,900 1,260 Climbing Denver Center
08:58PM 39.6481 -104.8994 185° South 226 260 17,400 1,380 Climbing Denver Center
08:59PM 39.5814 -104.9233 195° South 232 267 18,800 1,200 Climbing Denver Center
09:00PM 39.5167 -104.9442 194° South 239 275 19,900 960 Climbing Denver Center
09:01PM 39.4514 -104.9656 194° South 244 281 20,800 960 Climbing Denver Center
09:02PM 39.3789 -104.9881 193° South 249 287 21,900 840 Climbing Denver Center
09:03PM 39.3106 -105.0106 194° South 255 293 22,600 720 Climbing Denver Center
09:04PM 39.2411 -105.0325 194° South 259 298 23,400 660 Climbing Denver Center
09:05PM 39.1700 -105.0525 192° South 261 300 24,000 240 Climbing Denver Center
09:06PM 39.0950 -105.0867 199° South 268 308 24,000  Level Denver Center
09:07PM 39.0217 -105.1331 206° Southwest 285 328 24,000  Level Denver Center
09:08PM 38.9447 -105.1772 204° Southwest 297 342 24,100 480 Climbing Denver Center
09:09PM 38.8683 -105.2219 205° Southwest 287 330 25,000 420 Climbing Denver Center
09:10PM 38.8000 -105.2614 204° Southwest 282 325 25,000  Level Denver Center
09:11PM 38.7150 -105.3122 205° Southwest 296 341 25,000  Level Denver Center
09:13PM 38.6408 -105.3553 204° Southwest 305 351 25,000  Level Denver Center
09:14PM 38.5400 -105.4097 203° Southwest 309 356 25,000  Level Denver Center
09:15PM 38.4572 -105.4369 194° South 320 368 25,000  Level Denver Center
09:16PM 38.3594 -105.4700 195° South 325 374 25,000  Level Denver Center
09:17PM 38.2767 -105.4992 195° South 323 372 25,000  Level Denver Center
09:18PM 38.2017 -105.5256 195° South 324 373 25,000  Level Denver Center
09:19PM 38.0925 -105.5622 195° South 333 383 25,000  Level Denver Center
09:20PM 38.0056 -105.5922 195° South 337 388 25,000  Level Denver Center
09:21PM 37.9083 -105.6250 195° South 326 375 25,000  Level Denver Center
09:22PM 37.8106 -105.6589 195° South 328 377 25,000  Level Denver Center
09:23PM 37.7081 -105.6939 195° South 338 389 25,000  Level Denver Center
09:24PM 37.6206 -105.7239 195° South 341 392 25,000  Level Denver Center
09:25PM 37.5203 -105.7572 195° South 342 394 25,000  Level Denver Center
09:26PM 37.4342 -105.7872 195° South 338 389 25,000  Level Denver Center
09:27PM 37.3458 -105.8153 194° South 340 391 25,000  Level Denver Center
09:28PM 37.2503 -105.8600 200° South 334 384 25,000  Level Denver Center
09:29PM 37.1508 -105.9050 200° South 337 388 25,000  Level Denver Center
09:30PM 37.0656 -105.9419 199° South 337 388 25,000  Level Denver Center
09:31PM 36.9764 -105.9803 199° South 343 395 25,000  Level Denver Center
09:33PM 36.8497 -106.0361 199° South 337 388 25,000  Level Denver Center
09:34PM 36.7514 -106.0797 200° South 336 387 25,000  Level Denver Center
09:35PM 36.6672 -106.1172 200° South 332 382 25,000  Level Denver Center
09:35PM 36.6128 -106.1422 200° South 343 395 25,000  Level Albuquerque Center
09:36PM 36.5169 -106.1856 200° South 331 381 25,000  Level Albuquerque Center
09:37PM 36.4336 -106.2211 199° South 329 379 25,000  Level Albuquerque Center
09:38PM 36.3506 -106.2569 199° South 329 379 25,000  Level Albuquerque Center
09:39PM 36.2544 -106.2992 200° South 328 377 25,000  Level Albuquerque Center
09:41PM 36.1706 -106.3358 199° South 329 379 25,000  Level Albuquerque Center
09:42PM 36.0772 -106.3772 200° South 330 380 25,000 -60 Level Albuquerque Center
09:43PM 35.9900 -106.4147 199° South 331 381 24,900 -900 Descending Albuquerque Center
09:44PM 35.9033 -106.4511 199° South 337 388 23,200 -1,860 Descending Albuquerque Center
09:45PM 35.8014 -106.4956 199° South 345 397 21,100 -1,860 Descending Albuquerque Center
09:46PM 35.7169 -106.5319 199° South 338 389 19,400 -1,860 Descending Albuquerque Center
09:46PM 35.6758 -106.5478 197° South 332 382 18,500 -2,160 Descending Albuquerque Center
09:47PM 35.6344 -106.5664 200° South 334 384 17,500 -1,800 Descending Albuquerque Center
09:48PM 35.5328 -106.6083 199° South 338 389 15,600 -1,740 Descending Albuquerque Center
09:49PM 35.4517 -106.6453 200° South 337 388 14,100 -1,560 Descending Albuquerque Center
09:50PM 35.3703 -106.6792 199° South 303 349 12,700 -1,440 Descending Albuquerque Center
09:51PM 35.2944 -106.7092 198° South 285 328 11,200 -1,200 Descending Albuquerque Center
09:52PM 35.2072 -106.7475 200° South 289 333 10,100 -600 Descending Albuquerque Center
09:53PM 35.1394 -106.7750 198° South 255 293 10,000 -60 Descending Albuquerque Center
09:54PM 35.0967 -106.7369 144° Southeast 254 292 10,000 -780 Level Albuquerque Center
09:55PM 35.0892 -106.6325 95° East 268 308 8,500 -1,140 Descending Albuquerque Center
09:56PM 35.0844 -106.5453 94° East 240 276 7,600 -900 Descending Albuquerque Center
09:57PM 35.0583 -106.5053 129° Southeast 193 222 6,800 -960 Descending Albuquerque Center
09:58PM 35.0428 -106.5508 247° West 126 145 5,800 -660 Descending Albuquerque Center
09:58PM 35.0436 -106.5569 279° West 174 200 6,000 -360 Climbing Albuquerque Center
09:59PM 35.0522 -106.5925 286° West 180 207 5,400 -600 Descending Albuquerque Center